Content
SEND FEEDBACK

Daily
Averages
Monthly
Summary
United States of America

CHEYENNE, WYOMING


Home > North America > United States > Wyoming
Elevation: 1872 meters     Latitude: 41 09N     Longitude: 104 49W

WEATHER
 
SELECT A DAY
Number of Records: 205,613;   Date Range: 1/1/95 - 8/12/14
 
SHARE

PRINT THIS DATA

[ ← Previous Day ]
WEATHER ALMANAC - 31 JANUARY, 2013
[ Next Day → ]
[ °F ]   °C
Weather ElementAverageHighLow
Temperature-1.1 °C4.4 °C (1:53 pm)-7.2 °C (3:53 am)
Dewpoint-9.2 °C-7.2 °C (1:53 am)-11.7 °C (1:53 pm)
Humidity56.8 %86 % (3:16 am)31 % (1:53 pm)
Barometer1017.9 hPa1022.4 hPa (9:53 pm)1011.2 hPa (3:16 am)
Wind Speed21.4 km/h46.3 km/h (1:53 pm)
Wind Gust64.9 km/h (12:53 pm)
Weather ElementAverage
Visibility16.1 km
Wind DirectionSSW (218.4 °)

Weather ElementTotal
Precipitation---
Heating Degree Days19.8 (Base 18.3)
Averaged from 25 records on 31 January, 2013
WEATHER CONDITIONS BREAKOUT
WIND DIRECTION BREAKOUT
WEATHER BY HOUR - 31 JANUARY, 2013
[ °F ]   °C
Local TimeTemperatureDewpointHumidityBarometerVisibilityWind DirectionWind SpeedGust SpeedPrecipitationEventsConditions
1:53 AM-1.1 °C-7.2 °C64 %1012.9 hPa16.1 kmNW (310°)24.1 km/h46.3 km/hMostly Cloudy
2:53 AM-3.3 °C-7.8 °C71 %1014.2 hPa16.1 kmVariable5.6 km/hMostly Cloudy
3:16 AM-7 °C-9 °C86 %1011.2 hPa16.1 kmNE (50°)7.4 km/hOvercast
3:53 AM-7.2 °C-9.4 °C85 %1015.6 hPa16.1 kmENE (60°)7.4 km/hOvercast
4:53 AM-1.7 °C-8.3 °C61 %1014.6 hPa16.1 kmWNW (300°)20.4 km/h35.2 km/hPartly Cloudy
5:53 AM-2.2 °C-8.3 °C63 %1015.9 hPa16.1 kmNW (310°)24.1 km/hPartly Cloudy
6:53 AM-1.1 °C-8.3 °C59 %1015.9 hPa16.1 kmNW (310°)29.6 km/h50.1 km/hOvercast
7:53 AM-1.1 °C-8.3 °C59 %1016.9 hPa16.1 kmWNW (300°)22.2 km/h38.9 km/hOvercast
8:18 AM-4 °C-9 °C69 %1015.2 hPa16.1 kmNorth (360°)13 km/hOvercast
8:53 AM-1.1 °C-8.9 °C56 %1017.9 hPa16.1 kmNW (310°)37 km/h53.8 km/hOvercast
9:53 AM-2.8 °C-8.9 °C63 %1020 hPa16.1 kmNE (40°)22.2 km/h38.9 km/hMostly Cloudy
10:53 AM-4.4 °C-8.9 °C71 %1021.3 hPa16.1 kmNNE (30°)13 km/hOvercast
11:53 AM0 °C-8.9 °C52 %1019 hPa16.1 kmNW (320°)27.8 km/h42.6 km/hOvercast
12:53 PM3.9 °C-10.6 °C34 %1017.3 hPa16.1 kmWNW (300°)40.7 km/h64.9 km/hScattered Clouds
1:53 PM4.4 °C-11.7 °C31 %1017.3 hPa16.1 kmNW (310°)46.3 km/h62.9 km/hMostly Cloudy
2:53 PM3.3 °C-9.4 °C39 %1018.6 hPa16.1 kmNW (310°)35.2 km/h48.1 km/hPartly Cloudy
3:53 PM3.9 °C-10 °C36 %1020 hPa16.1 kmWNW (300°)27.8 km/h40.7 km/hClear
4:53 PM2.8 °C-10.6 °C37 %1019.3 hPa16.1 kmWest (280°)27.8 km/h44.4 km/hClear
5:53 PM0 °C-10 °C48 %1021 hPa16.1 kmCalmClear
6:53 PM-1.1 °C-9.4 °C54 %1021.3 hPa16.1 kmCalmClear
7:53 PM-1.7 °C-10 °C54 %1022 hPa16.1 kmWest (270°)20.4 km/hClear
8:53 PM-0.6 °C-10 °C50 %1021.7 hPa16.1 kmWest (270°)25.9 km/hClear
9:53 PM-0.6 °C-9.4 °C52 %1022.4 hPa16.1 kmWest (260°)22.2 km/hClear
10:53 PM0 °C-9 °C51 %1018.6 hPa16.1 kmWest (260°)22.2 km/h29.6 km/hClear
11:53 PM-4.4 °C-8.3 °C75 %1022 hPa16.1 kmSSW (200°)11.1 km/hClear
Hourly data recorded from KCYS, located 0 kilometers away from Cheyenne, Wyoming







STORIES FROM OUR PARTNERS